Regional Weather Roundup
Issued by NWS Wakefield, VA

Home | Current Version | Previous Version | Text Only | Print | Product List | Glossary Off
Versions: 1 2 3 4 5 6 7 8 9 10 11 12 13 14 15 16 17 18 19 20 21 22 23 24 25 26 27 28 29 30 31 32 33 34 35 36 37 38 39 40 41 42 43 44 45 46 47 48 49 50

000
ASUS41 KAKQ 250414
RWRAKQ

REGIONAL WEATHER ROUNDUP
NATIONAL WEATHER SERVICE WAKEFIELD VA
1200 AM EDT SAT APR 25 2015

Note: "fair" indicates few or no clouds below 12,000 feet with no
significant weather and/or obstructions to visibility. * = Denotes
station may not report precipitation (e.g., rain,snow,etc.),
thunder or fog.

VAZ042-051-052>054-056-250500-
NORTHERN VIRGINIA

CITY           SKY/WX    TMP DP  RH WIND       PRES   REMARKS
WASH NATIONAL  MOCLDY    54  23  30 NW7       29.95F
DULLES         PTCLDY    41  29  62 CALM      29.95F
FORT BELVOIR   PTCLDY    43  31  64 NW1       29.95F
QUANTICO       CLEAR     46  32  58 NW7       29.97F
FREDERICKSBRG* FAIR      44  32  63 CALM      29.96S
STAFFORD*      CLEAR     37  29  73 CALM      30.00S
WARRENTON      CLEAR     41  32  71 CALM      29.96S
CULPEPER*      CLEAR     39  30  70 CALM      29.97S
MANASSAS*      PTCLDY    43  34  70 CALM      29.96S
LEESBURG*      PTCLDY    45  30  57 CALM      29.96S
WINCHESTER     PTCLDY    45  21  39 SE3       29.96S
FRONT ROYAL*   FAIR      46  21  36 CALM      29.95S
LURAY*         FAIR      46  28  49 CALM      29.96S
$$

VAZ048-049-060>072-079>083-250500-
CENTRAL AND SOUTH CENTRAL VIRGINIA

CITY           SKY/WX    TMP DP  RH WIND       PRES   REMARKS
RICHMOND       MOCLDY    50  27  40 E5        29.96S
CHESTERFIELD*  FAIR      45  25  45 CALM      29.97S
PETERSBURG*    PTCLDY    42  37  82 CALM      29.96S
HANOVER        PTCLDY    42  31  64 CALM      29.98S
TAPPAHANNOCK*  PTCLDY    39  30  69 CALM      29.98R
QUINTON*       FAIR      42  34  75 SE6       29.97S
CHARLOTTSVILLE MOCLDY    49  20  31 CALM      29.95F
GORDONSVILLE*  FAIR      41  30  65 CALM      29.96S
ORANGE*        PTCLDY    43  32  65 CALM      29.97S
LOUISA*        PTCLDY    41  27  56 CALM      29.95S
BUMPASS*       FAIR      42  33  69 CALM      29.96F
FARMVILLE*     MOCLDY    49  27  42 CALM      29.95S
CREWE*         MOCLDY    43  33  67 CALM      29.95S
FORT PICKETT*  FAIR      49  27  43 NW5       29.95S
CHASE CITY*    FAIR      47  37  67 CALM      29.95F
CLARKSVILLE*   FAIR      45  37  76 CALM      29.94F
SOUTH HILL*    CLEAR     40  36  87 CALM      30.00F
LAWRENCEVILLE* FAIR      43  37  78 CALM      29.93F
EMPORIA*       CLEAR     41  34  75 CALM      29.95F
$$

VAZ088>098-250500-
SOUTHEAST VIRGINIA

CITY           SKY/WX    TMP DP  RH WIND       PRES   REMARKS
NORFOLK        CLEAR     50  39  66 SE5       29.97R
VIRGINIA BEACH PTCLDY    50  39  66 SE5       29.97S
NORFOLK NAVAL  PTCLDY    51  39  63 E7        29.98S
WEST POINT*    PTCLDY    39  33  78 CALM      29.99S
SALUDA*        FAIR      40  34  78 CALM      29.96S
NEWPORT NEWS   CLEAR     50  41  71 E6        29.97S
LANGLEY AFB    CLEAR     51  40  64 SE6       29.96S
FORT EUSTIS    CLEAR     52  40  65 E6        29.95R
WILLIAMSBURG*  PTCLDY    48  41  76 CALM      29.98S
HR EXEC AP*    FAIR      39  36  87 E5        29.97S
FRANKLIN*      CLEAR     42  38  86 CALM      29.95S
WAKEFIELD      PTCLDY    41  36  82 CALM      29.95S
$$

VAZ020-022-025-037-045-250500-
WEST CENTRAL AND SOUTHWEST VIRGINIA

CITY           SKY/WX    TMP DP  RH WIND       PRES   REMARKS
STAUNTON*      MOCLDY    43  28  54 CALM      29.97F
WAYNESBORO*    FAIR      43  24  46 CALM      29.96F
HOT SPRINGS VA MOCLDY    42  12  29 NW8       29.94S
LYNCHBURG      MOCLDY    46  30  53 CALM      29.96S
DANVILLE       PTCLDY    45  37  73 CALM      29.95F
SOUTH BOSTON*  FAIR      43  38  83 CALM      29.95S
MARTINSVILLE   PTCLDY    42  37  85 CALM      29.96F
ROANOKE        MOCLDY    51  23  33 N7        29.97F
BLACKSBURG     MOCLDY    43  27  53 CALM      29.99S
DUBLIN*        MOCLDY    48  26  42 CALM      29.97F
MARION*        CLOUDY    46  32  58 CALM      29.98F
HILLSVILLE*    PTCLDY    52  19  27 S3        29.96F
RICHLANDS*     FAIR     N/A N/A N/A CALM      29.96F
WISE*          CLOUDY    54  25  32 S3        29.95F
ABINGDON*      CLOUDY    52  33  48 CALM      29.95F
$$

MDZ021>025-VAZ099-100-250500-
SOUTHERN MARYLAND AND THE DELMARVA PENINSULA

CITY           SKY/WX    TMP DP  RH WIND       PRES   REMARKS
PATUXENT RIVER PTCLDY    39  32  76 CALM      29.95S
BAY BRIDGE APT   N/A    N/A N/A N/A NW7       29.95S
LEONARDTOWN    NOT AVBL
DOVER          CLEAR     43  29  57 W6        29.89S
GEORGETOWN     PTCLDY    39  30  70 CALM      29.94S
EASTON         PTCLDY    47  32  55 CALM      29.98S
CAMBRIDGE      PTCLDY    43  34  70 CALM      29.94S
SALISBURY      PTCLDY    40  32  73 CALM      29.94S
OCEAN CITY     PTCLDY    38  32  79 NW3       29.94S
WALLOPS ISLAND CLEAR     45  30  55 NW3       29.95S
ACCOMACK*      CLEAR     39  32  75 S3        29.96R
$$

NCZ012>017-030>032-250500-
NORTH CENTRAL AND EASTERN NORTH CAROLINA

CITY           SKY/WX    TMP DP  RH WIND       PRES   REMARKS
ROANOKE RAPIDS FAIR      43  39  87 SW3       29.95F
RALEIGH        MOCLDY    50  38  63 CALM      29.96F
ELIZABETH CITY CLEAR     48  39  71 CALM      29.96F
AHOSKIE*       CLEAR     41  39  91 CALM      29.95F
EDENTON*       CLEAR     56  40  56 SW5       29.96F
CURRITUCK*     CLEAR     49  42  76 CALM      29.98S
KILL DEVIL HLS CLEAR     49  41  75 SE3       29.97S
MANTEO         CLEAR     48  41  76 CALM      29.98F
CAPE HATTERAS  CLEAR     46  41  82 W5        29.98F
TARBORO*       FAIR      46  44  96 CALM      29.97S
GOLDSBORO      MOCLDY    50  43  77 CALM      29.94F
WASHINGTON     PTCLDY    50  36  59 CALM      29.97F
GREENVILLE     PTCLDY    50  43  76 CALM      29.98F
NEW BERN       PTCLDY    52  43  71 SW6       29.99F
WILMINGTON     MOCLDY    57  45  64 SW5       29.99F
$$

VAZ048-250500-
ELSEWHERE

CITY           SKY/WX    TMP DP  RH WIND       PRES   REMARKS
HARRISBURG PA  CLEAR     46   8  21 N3        29.95R
BALTIMORE      PTCLDY    42  27  55 CALM      29.95S
ANNAPOLIS      PTCLDY    46  29  51 CALM      29.95S
ANDREWS AFB    PTCLDY    44  30  57 W3        29.94S
PHILADELPHIA   PTCLDY    45  20  36 N16G23    29.97R
HENDERSON NC   MOCLDY    46  38  74 SW6       29.95S
GREENSBORO     MOCLDY    53  35  50 S3        29.93F
ROCKY MOUNT    PTCLDY    46  40  79 CALM      29.96F
$$

VAZ100-250500-
MARINE

STATION/POSITION TIME  TEMP    WIND        PRES    WAVE   SWELL
                       AIR SEA DIR/SP/G            HT/PER HT/PER
                 (UTC) (F)     (DEG/KT/KT) (MB)    (FT/S) (FT/S)
BRANDYWINE LGT   0300   52 52  290/  9/ 10 1013.5R
CAPE MAY NJ      0300   52 56  300/  8/ 11 1013.0R
LEWES DE         0300   49 52  250/  5/  6 1013.5R
15NM E FENWICK I 0350   48 47              1013.2S   2/13
OCEAN-CITY-INLET 0300   50 51  320/  4/  5 1013.4R
WACHAPREAGUE VA  0300   46 59  300/  2/  2 1014.4F
THOMAS POINT MD  0400   52 53  310/  5/  5 1014.9R
GOOSES REEF MD   0400   53 53  320/  8/  8   N/A     2/ 2
COVE POINT MD    0300   53     330/  7/  8 1014.7S
SOLOMONS ISLAND  0300      57                N/A
BISHOPS HEAD MD  0300   52 57  330/  2/  3 1013.6F
PINEY POINT MD   0300           10/  3/  3   N/A
CAMBRIDGE MD     0300   53 59  220/  5/  6 1013.8R
LEWISETTA VA     0300   50 57              1014.1S
RAPPAHANNOCK LGT 0300          250/  3/  4 1014.9R
YORK RVR RNG VA  0300   56     160/ 12/ 13 1014.2R
YORKTOWN VA      0300   55 61  150/  6/  8 1014.5R
JAMESTOWN VA     0400   53 65   80/  4/  6 1013.7S
DOMINION TERM VA 0300   56     130/ 11/ 13 1014.6R
KIPTOPEKE VA     0300      63  180/ 11/ 13   N/A
CHES BAY BRIDGE  0300   53 58  120/  5/ 10 1014.4R
CAPE HENRY VA    0300   52     140/  7/  9 1013.5R
CHESAPEAKE LGHT  0300   51     170/ 11/ 12 1015.5S
WILLOUBY STN VA  0300   53     140/  9/ 11 1015.1S
S CRANEY ISL VA  0300          120/  7/  9 1014.6R
CAPE HENRY BUOY  0328      52                N/A     2/13   2/13
1ST LANDING BUOY 0400                      1014.8R   1/ 3
OFFSHORE WE BUOY 0311      50                N/A     2/13   2/13
64NM E OF VA BCH 0350   54 63  220/  8/ 10 1014.6F   3/ 6   3/ 6
DUCK PIER NC     0300   51 55  130/ 13/ 14 1014.0R
44056 DUCK FRF   0311      54                N/A     3/ 6   2/13
OREGON INLET NC  0300   50 58  110/  7/  9 1015.3F
HATTERAS NC      0300   61 66  250/  3/  4 1014.9S
DIAMOND SHLS NC  0350   64 73  240/ 14/ 19 1015.2F   5/10   5/10
CAPE LOOKOUT NC  0400   61     250/  9/ 12 1015.4F
$$


USA.gov is the U.S. government's official web portal to all federal, state and local government web resources and services.